Hourly Data Report for May 31, 2021

TOBERMORY RCS
ONTARIO
Current Station Operator: ECCC - MSC

45°14'00.000" N
81°38'00.000" W
213.50 m
6128330
71767
TTR

Download Data

Hourly Data (May 2021)
Hourly Data Report for May 31, 2021
TIME
LST
Temp Definition
°C
Dew Point Definition
°C
Rel Hum Definition
%
Precip. Amount Definition
mm

Wind Dir Definition
10's deg

Wind Spd Definition
km/h
Visibility Definition
km
Stn Press Definition
kPa
Hmdx Definition


Wind Chill Definition


Weather Definition


00:00 5.0 1.6 79 0.0 16 4   99.80     LegendNANA
01:00 4.1 2.2 88 0.0 15 5   99.78     LegendNANA
02:00 5.8 3.8 87 0.0 18 4   99.81     LegendNANA
03:00 6.6 3.9 83 0.0 18 5   99.79     LegendNANA
04:00 7.9 3.4 73 0.0 21 7   99.85     LegendNANA
05:00 8.3 2.2 66 0.0 17 5   99.80     LegendNANA
06:00 10.5 3.4 62 0.0 22 8   99.85     LegendNANA
07:00 11.4 3.8 59 0.0 25 8   99.88     LegendNANA
08:00 11.9 4.1 59 0.0 25 9   99.90     LegendNANA
09:00 14.1 5.0 54 0.0 26 8   99.91     LegendNANA
10:00 16.0 4.6 47 0.0 21 6   99.86     LegendNANA
11:00 15.8 3.0 42 0.0 23 10   99.86     LegendNANA
12:00 16.1 3.9 44 0.0 22 11   99.85     LegendNANA
13:00 13.3 5.0 57 0.0 21 12   99.82     LegendNANA
14:00 14.5 3.8 49 0.0 20 11   99.77     LegendNANA
15:00 15.0 4.0 48 0.0 18 10   99.76     LegendNANA
16:00 15.0 2.6 43 0.0 18 10   99.75     LegendNANA
17:00 15.4 2.0 40 0.0 20 12   99.69     LegendNANA
18:00 12.3 5.6 64 0.0 19 8   99.66     LegendNANA
19:00 11.7 6.1 68 0.0 16 6   99.62     LegendNANA
20:00 11.0 6.5 74 0.0 17 5   99.62     LegendNANA
21:00 11.1 6.3 72 0.0 16 7   99.60     LegendNANA
22:00 11.5 5.7 68 0.0 17 6   99.57     LegendNANA
23:00 10.5 5.4 71 0.0 24 5   99.56     LegendNANA

Notes on Data Quality.

Legend

  • E = Estimated
  • M = Missing
  • NA = Not Available*
  • [empty] = Indicates an unobserved value
Date modified: